STARLINK-2001 (47596 NORAD) Tracking and Keplerian Element Data
This shows tracking and keplerian element data for the satellite.
Feedback or suggestion? Click here.
Element | Value |
Catalog | 47596 |
Name | STARLINK-2001 |
Epoch Orbit | 1060 |
Epoch Day | 99.91667824 |
Epoch Year | 2021 |
RAAN | 178.657 |
Inclination | 53.0541 |
Eccentricity | 0.0001234 |
Argument of Perigee | 70.3917 |
Mean Anonmoly | 100.4952 |
Mean Motion | 15.06430601 |
Decay Rate | -0.00027759 |
L1 | 1 47596U 21009BA 21099.91667824 -.00027759 00000-0 -18504-2 0 9999 |
L2 | 2 47596 53.0541 178.6570 0001234 70.3917 100.4952 15.06430601 10606 |
Live tracking and technical data element details for STARLINK-2001 (NORAD 47596). STARLINK-2001 can be tracked NOW for your location showing map with azimuth and elevation plus other details from your city location.
Track the satellite on the map from your city or location and see movement details for azimuth, elevation, latitude, longitude, range, height, and movement on the map or in text.
IsCatalogInMostPopularTable: catalog: 47596, numindb: 18
Update: records affected: 1
GetName: 47596 STARLINK-2001
Hit Count: updated at: Sat, 10 Apr 2021 18:35:46 GMT